Fort Franklin, Northwest Territories

8:53 AM MST on December 14, 2019 (GMT -0700)
Fort Franklin

Weather History for CYWJ - November, 2019

Change the Weather History Date:

Tuesday, November 19, 2019

  Actual Average Record
Temperature  
Mean Temperature 3 °F -  
Max Temperature 5 °F 7 °F 21 °F (2000)
Min Temperature 1 °F 1 °F -22 °F (1996)
Degree Days  
Heating Degree Days 62    
Moisture  
Dew Point 0 °F    
Average Humidity 86    
Maximum Humidity 92    
Minimum Humidity 85    
Precipitation  
Precipitation 0.00 in - - ()
Sea Level Pressure  
Sea Level Pressure 30.14 in    
Wind  
Wind Speed 3 mph ()    
Max Wind Speed 6 mph    
Max Gust Speed -    
Visibility 3.1 miles    
Events Snow    
Averages and records for this station are not official NWS values.
T = Trace of Precipitation, MM = Missing Value Source: Averaged Metar Reports

Daily Weather History Graph

Daily Weather History Graph

Search for Another Location

Airport or City:

Astronomy

Nov. 19, 2019 Rise Set
Actual Time 10:06 AM MST 3:51 PM MST
Civil Twilight 8:59 AM MST 4:58 PM MST
Nautical Twilight 7:54 AM MST 6:02 PM MST
Astronomical Twilight 6:55 AM MST 7:01 PM MST
Moon 11:28 PM MST (11/19) 3:54 PM MST (11/19)
Length of Visible Light 7h 58m
Length of Day
5h 45m
Waning Gibbous, 51% of the Moon is Illuminated
Nov 19
Waning Gibbous
Nov 19
Last Quarter
Nov 26
New
Dec 3
First Quarter
Dec 11
Full

Hourly Weather History & Observations

Time (MST) Temp. Windchill Dew Point Humidity Pressure Visibility Wind Dir Wind Speed Gust Speed Precip Events Conditions
8:00 AM 3.2 °F -6.2 °F -0.4 °F 85% 30.12 in 5.0 mi NW 4.6 mph - N/A Snow Light Snow
8:33 AM 3.2 °F -4.2 °F -0.4 °F 85% 30.12 in 5.0 mi NW 3.5 mph - N/A   Ice Crystals
8:49 AM 3.2 °F -4.2 °F -0.4 °F 85% 30.13 in 3.0 mi WNW 3.5 mph - N/A Snow Light Snow
9:00 AM 3.2 °F -4.2 °F -0.4 °F 85% 30.13 in 4.0 mi NNW 3.5 mph - N/A Snow Light Snow
9:09 AM 3.2 °F -4.2 °F -0.4 °F 85% 30.13 in 7.0 mi NW 3.5 mph - N/A   Mostly Cloudy
9:30 AM 1.4 °F -6.2 °F -2.2 °F 85% 30.14 in 7.0 mi NW 3.5 mph - N/A   Ice Crystals
10:00 AM 3.2 °F -4.2 °F -0.4 °F 85% 30.14 in 1.5 mi NW 3.5 mph - N/A   Ice Crystals
10:08 AM 3.2 °F -4.2 °F -0.4 °F 85% 30.14 in 3.0 mi NNW 3.5 mph - N/A   Ice Crystals
10:19 AM 3.2 °F -4.2 °F -0.4 °F 85% 30.14 in 3.0 mi North 3.5 mph - N/A Snow Light Snow
10:21 AM 3.2 °F - -0.4 °F 85% 30.14 in 1.0 mi North 2.3 mph - N/A Snow Light Snow
10:26 AM 3.2 °F - -0.4 °F 85% 30.14 in 1.0 mi NNW 2.3 mph - N/A Snow Light Snow
11:00 AM 3.2 °F - -0.4 °F 85% 30.14 in 1.0 mi NNW 2.3 mph - N/A Snow Light Snow
11:12 AM 5.0 °F - 1.4 °F 85% 30.14 in 1.5 mi Calm Calm - N/A Snow Light Snow
12:00 PM 3.2 °F - -0.4 °F 85% 30.14 in 1.0 mi Calm Calm - N/A Snow Light Snow
12:44 PM 5.0 °F - 1.4 °F 85% 30.14 in 3.0 mi Calm Calm - N/A Snow Light Snow
1:00 PM 5.0 °F - 1.4 °F 85% 30.14 in 4.0 mi Calm Calm - N/A Snow Light Snow
1:13 PM 5.0 °F - 1.4 °F 85% 30.14 in 1.5 mi South 2.3 mph - N/A Snow Light Snow
2:00 PM 5.0 °F - 1.4 °F 85% 30.15 in 1.0 mi Calm Calm - N/A Snow Light Snow
2:36 PM 5.0 °F -2.1 °F 1.4 °F 85% 30.15 in 2.0 mi WNW 3.5 mph - N/A Snow Light Snow
2:49 PM 3.2 °F - 1.4 °F 92% 30.15 in 7.0 mi North 2.3 mph - N/A Snow Light Snow
3:00 PM 3.2 °F - 1.4 °F 92% 30.15 in 7.0 mi North 2.3 mph - N/A Snow Light Snow
4:00 PM 5.0 °F - 1.4 °F 85% 30.15 in 1.0 mi East 2.3 mph - N/A Snow Light Snow
4:52 PM 3.2 °F -4.2 °F 1.4 °F 92% 30.14 in 1.5 mi East 3.5 mph - N/A Snow Light Snow
5:00 PM 5.0 °F -5.6 °F 1.4 °F 85% 30.14 in 1.5 mi East 5.8 mph - N/A Snow Light Snow